Wind_Speed
36 38 39 38 38 38 39 39 39 40 40 41 41 41 41 40 39 38 37 38 38 38 37 36 36 35 34 34 34 34 34 34 34 34 34 34 34 33 33 33 32 33 32
36 38 40 40 40 39 39 40 40 41 41 42 42 41 40 40 40 39 38 38 38 37 37 37 37 36 35 34 34 34 34 34 34 34 34 34 34 34 33 33 33 33 32
36 37 39 40 40 40 40 40 41 41 42 42 42 42 42 41 39 39 39 38 38 37 37 38 37 36 35 34 34 34 33 34 34 34 34 34 35 35 34 34 34 34 33
36 37 38 40 41 41 40 40 41 41 41 42 42 42 41 41 41 40 40 38 38 38 37 37 36 36 35 35 35 35 34 34 34 34 34 34 34 34 33 33 33 33 32
35 37 38 39 41 41 41 40 40 41 41 42 42 42 42 42 41 41 41 40 39 39 38 37 37 36 35 36 36 35 35 35 35 34 33 32 32 32 32 32 32 31 31
34 36 37 38 40 40 40 40 39 40 41 41 41 42 41 42 41 41 41 40 40 40 39 38 37 36 37 36 36 35 35 34 34 33 33 33 32 32 32 32 31 30 30
34 35 36 37 38 39 39 40 40 39 40 40 40 41 40 40 40 41 41 41 40 40 40 39 38 38 38 37 36 36 35 35 34 34 33 33 33 31 30 30 30 30 30
34 34 35 36 38 39 40 40 40 40 39 39 40 40 40 40 41 41 40 40 40 40 40 39 38 38 38 36 36 35 35 34 34 33 33 33 31 30 29 29 29 29 28
33 34 34 35 36 37 38 39 40 40 40 40 40 40 40 41 41 41 41 40 40 40 39 39 38 37 37 37 36 35 34 34 33 32 32 32 31 30 29 28 28 27 26
34 34 34 33 34 36 37 38 39 40 39 39 39 39 40 40 40 40 41 40 40 40 39 39 39 38 37 37 35 34 34 33 33 33 32 31 31 30 29 28 27 25 24
33 33 34 34 34 35 37 39 39 40 39 39 39 39 40 41 40 40 40 41 40 39 38 38 37 38 37 36 35 34 33 33 33 33 32 31 30 29 28 27 25 24 24
33 33 33 33 34 34 36 37 38 39 39 39 39 39 39 38 38 38 39 39 39 39 38 37 37 36 36 36 35 35 34 33 32 32 31 30 29 27 25 24 23 23 23
32 33 33 34 34 34 35 35 36 37 37 37 37 37 37 37 37 37 38 38 38 37 37 37 36 36 36 36 36 35 33 32 31 30 29 28 27 25 24 23 23 22 22
33 33 33 34 34 34 34 34 35 35 35 35 35 35 35 35 35 35 36 36 36 36 36 35 35 36 36 35 35 34 32 31 31 29 28 26 25 24 24 24 23 22 21
33 33 33 34 34 33 33 32 32 34 34 34 33 33 33 33 34 34 34 34 35 35 34 34 33 34 34 35 35 34 32 32 30 29 28 26 24 24 24 24 23 22 20
32 33 33 32 33 32 32 32 32 32 33 32 32 32 32 33 33 33 32 33 33 34 33 33 33 33 33 33 33 32 32 31 30 29 27 25 25 24 24 24 23 21 20
31 32 32 31 31 31 31 31 31 31 31 31 31 31 31 31 30 30 31 31 31 31 32 31 31 31 31 31 31 31 31 30 29 28 27 26 25 24 23 23 22 21 20
30 30 30 31 31 30 30 30 29 30 30 31 30 30 30 30 30 30 30 30 30 30 30 30 30 30 30 30 30 30 30 29 28 28 27 26 25 24 23 23 22 22 21
29 29 30 30 30 30 30 29 29 30 29 29 29 29 30 29 30 29 29 28 29 29 29 29 30 29 29 29 29 29 29 28 28 27 27 26 26 25 23 23 22 22 21
28 28 29 29 30 29 29 29 29 30 30 29 28 28 28 28 28 28 28 28 28 28 28 28 28 28 28 27 27 27 28 28 27 27 26 26 26 25 23 22 21 21 20
27 27 28 28 28 28 29 29 30 30 29 29 28 28 27 28 28 28 28 28 28 28 28 28 27 27 27 27 27 27 26 26 26 26 26 26 25 24 23 22 22 21 20
27 27 27 27 28 28 28 28 29 29 29 29 28 28 27 27 28 28 27 27 27 27 27 27 27 27 28 27 27 27 25 25 26 26 26 25 25 24 23 22 21 21 20
27 27 27 28 28 27 27 27 28 29 29 29 29 28 28 27 27 27 26 27 27 27 28 27 27 26 26 26 26 26 25 25 25 26 26 25 24 23 22 21 21 20 20
25 25 25 25 26 26 26 25 26 26 27 28 28 28 28 27 26 25 25 25 26 26 26 26 26 26 25 25 25 25 25 25 25 25 25 24 24 23 22 21 21 20 19
25 24 24 24 24 24 24 24 24 25 26 27 27 28 28 27 27 26 26 25 25 25 25 26 26 26 25 25 25 24 24 23 24 24 24 24 23 22 22 21 20 20 19
25 25 25 24 24 24 24 24 24 24 25 25 25 26 26 26 26 26 26 26 25 24 24 25 25 25 24 24 24 24 24 23 23 23 23 23 22 21 20 19 19 19 19
Wind_Direction
249 248 249 250 252 254 255 256 256 257 257 259 260 261 262 264 265 266 268 269 269 269 270 272 275 277 278 280 282 284 285 286 288 291 293 295 296 298 299 300 300 300 300
251 251 252 252 254 256 257 257 257 258 259 261 261 262 262 264 266 266 267 268 269 269 270 272 274 275 277 278 281 283 284 286 289 291 292 292 294 296 298 297 298 299 299
253 254 253 253 254 255 256 257 259 259 260 262 263 263 262 263 265 265 265 267 268 270 270 271 273 274 277 279 280 282 284 286 288 290 292 292 293 294 296 296 295 297 297
255 255 255 254 254 255 257 258 259 259 260 262 263 263 263 263 263 264 266 267 268 268 269 271 272 273 275 277 279 280 282 284 286 289 292 292 293 294 295 295 295 295 296
256 256 257 256 255 256 257 258 259 259 260 261 263 264 264 264 264 264 265 265 265 266 267 269 270 271 273 275 277 278 279 282 284 287 289 291 292 293 294 295 295 296 296
259 258 258 257 256 256 257 258 260 261 261 262 264 265 265 265 265 265 264 263 263 265 266 267 268 270 271 273 275 276 278 280 282 284 287 289 291 292 294 294 295 295 296
260 260 259 258 257 256 257 258 260 262 263 263 265 265 265 266 266 264 264 262 262 264 265 265 267 268 270 271 272 273 275 278 280 282 284 286 290 292 293 294 295 296 297
260 260 260 261 259 258 258 259 260 262 263 264 265 265 265 265 265 264 264 264 263 265 265 265 266 266 268 269 270 271 273 275 278 280 282 286 288 290 291 292 294 296 297
261 261 261 262 262 260 260 261 262 262 263 264 265 265 265 265 265 265 264 263 264 265 264 264 264 265 265 266 267 269 270 273 275 278 282 284 285 286 288 291 295 296 297
263 262 262 264 264 263 262 262 263 263 264 265 265 264 265 266 266 265 264 264 264 264 263 263 263 264 264 263 265 267 267 270 272 275 279 280 282 284 287 289 292 294 295
264 263 263 264 265 264 263 263 264 264 264 264 264 264 265 265 265 265 265 264 263 263 262 262 262 262 262 262 264 266 268 269 270 273 275 277 280 282 284 285 287 291 294
263 263 265 266 267 266 265 264 264 264 263 263 264 265 265 264 263 263 264 264 264 262 262 262 260 260 261 261 262 265 267 269 269 270 272 274 277 279 279 280 284 289 293
265 265 266 267 268 268 266 265 265 265 264 263 263 263 264 264 264 264 264 264 263 261 261 261 261 259 259 260 261 264 266 266 267 267 269 272 273 274 275 278 282 285 291
267 268 268 269 269 268 267 266 264 264 263 262 262 262 263 263 263 263 263 262 261 260 260 260 260 259 259 259 260 262 263 263 263 264 266 267 268 272 273 276 280 283 287
268 269 270 270 270 269 267 265 264 262 263 263 262 261 261 261 262 263 262 262 260 259 259 259 260 260 259 259 259 259 260 260 260 260 261 262 265 268 271 273 277 280 284
269 269 270 271 270 270 268 266 265 264 263 263 262 261 261 261 261 262 263 263 260 259 260 259 258 259 259 258 257 257 258 258 257 256 256 258 262 266 268 271 273 275 279
271 269 269 270 270 271 269 267 265 264 262 262 262 261 261 261 261 261 262 262 260 259 258 257 257 257 257 257 256 255 255 254 254 252 253 257 260 264 266 267 269 271 275
273 271 269 269 270 270 268 266 264 262 261 261 261 261 261 261 261 261 262 261 260 259 257 256 256 255 255 255 254 253 252 251 251 251 251 254 258 263 264 266 267 269 271
275 273 271 270 270 269 267 265 263 262 262 263 262 262 261 262 261 261 261 260 259 258 257 256 254 253 252 253 253 251 250 250 249 249 250 253 256 259 262 264 266 267 267
276 274 273 271 270 269 266 264 262 261 262 262 263 262 261 261 262 262 262 260 258 258 257 254 253 251 250 250 250 250 251 249 248 249 251 253 255 256 258 259 261 262 264
278 276 274 273 272 271 267 264 262 260 260 260 261 262 262 261 262 262 262 259 256 255 254 252 251 249 249 249 250 251 251 249 247 248 250 251 251 252 255 255 256 258 260
279 278 275 272 272 271 268 264 260 258 259 259 260 261 260 261 261 261 259 257 255 253 252 251 249 248 248 249 249 249 250 249 247 246 247 249 249 249 250 251 251 252 253
280 279 276 274 272 272 270 266 262 260 260 260 259 260 260 260 260 259 257 255 253 252 251 249 247 247 247 248 247 248 250 250 247 245 244 245 246 246 247 247 247 247 248
282 280 279 276 273 272 271 268 264 262 260 259 258 259 260 259 258 257 255 253 252 250 248 246 245 245 245 245 247 248 250 249 245 243 241 241 243 244 244 245 245 244 244
282 280 279 277 275 273 271 269 265 263 261 259 259 259 259 258 256 253 252 252 251 250 248 247 246 245 245 245 246 246 246 245 242 239 238 239 240 241 242 242 242 240 240
281 281 279 277 275 273 271 270 268 265 262 260 260 259 257 255 252 251 251 250 249 248 248 246 245 244 244 244 244 244 243 241 239 236 235 236 236 236 237 238 239 239 238
Height
5680 5682 5684 5686 5688 5690 5691 5693 5695 5696 5698 5699 5701 5702 5703 5704 5705 5705 5706 5707 5707 5707 5707 5707 5706 5706 5705 5704 5703 5701 5699 5697 5696 5693 5690 5687 5683 5680 5676 5672 5667 5663 5659
5671 5673 5675 5677 5679 5681 5682 5684 5686 5687 5688 5689 5691 5692 5693 5694 5695 5696 5697 5697 5698 5698 5698 5697 5697 5697 5696 5696 5694 5693 5691 5689 5687 5685 5682 5679 5676 5672 5668 5664 5660 5656 5653
5663 5664 5666 5668 5669 5671 5673 5674 5676 5677 5678 5680 5681 5682 5683 5684 5685 5686 5687 5687 5688 5688 5688 5688 5688 5688 5687 5687 5685 5684 5683 5681 5679 5676 5674 5671 5668 5664 5660 5657 5653 5649 5645
5653 5655 5656 5658 5660 5662 5663 5664 5666 5667 5669 5670 5671 5672 5673 5674 5675 5676 5676 5677 5678 5678 5679 5679 5679 5678 5678 5677 5676 5675 5674 5672 5670 5668 5666 5663 5659 5656 5652 5649 5645 5642 5638
5644 5645 5647 5648 5650 5652 5653 5654 5656 5657 5658 5660 5661 5661 5662 5663 5664 5665 5666 5667 5667 5668 5669 5669 5669 5669 5668 5667 5667 5666 5665 5663 5661 5659 5657 5654 5651 5648 5644 5641 5638 5634 5631
5635 5636 5637 5638 5640 5641 5643 5644 5645 5647 5648 5649 5650 5651 5651 5652 5653 5654 5655 5656 5657 5657 5658 5658 5659 5659 5658 5658 5657 5656 5655 5654 5653 5651 5649 5646 5643 5640 5636 5633 5630 5627 5624
5625 5626 5627 5628 5629 5631 5632 5634 5635 5636 5637 5638 5639 5640 5641 5641 5642 5642 5643 5644 5645 5646 5647 5647 5648 5648 5648 5648 5647 5646 5646 5644 5643 5642 5640 5637 5635 5632 5629 5626 5622 5619 5616
5616 5617 5618 5618 5619 5621 5622 5623 5625 5626 5626 5627 5628 5628 5629 5630 5630 5631 5631 5632 5634 5635 5635 5636 5637 5637 5637 5637 5637 5637 5636 5635 5635 5633 5632 5629 5627 5624 5621 5618 5615 5612 5608
5606 5607 5608 5609 5609 5610 5612 5613 5614 5614 5615 5616 5617 5617 5618 5618 5619 5619 5620 5621 5622 5623 5624 5625 5626 5626 5627 5627 5627 5627 5626 5626 5624 5624 5622 5621 5618 5616 5613 5610 5608 5605 5602
5597 5597 5598 5598 5599 5600 5601 5602 5602 5603 5604 5605 5605 5605 5606 5607 5607 5608 5609 5610 5611 5612 5613 5614 5615 5615 5616 5616 5616 5616 5617 5616 5615 5615 5613 5612 5610 5607 5605 5603 5600 5598 5596
5588 5588 5588 5589 5589 5590 5590 5591 5591 5592 5593 5593 5594 5594 5594 5595 5596 5597 5598 5599 5600 5601 5602 5603 5604 5604 5605 5605 5606 5606 5606 5606 5606 5605 5604 5603 5601 5599 5597 5595 5593 5591 5589
5579 5579 5579 5579 5579 5579 5579 5579 5580 5580 5581 5582 5582 5583 5583 5584 5585 5586 5587 5588 5589 5590 5591 5591 5592 5593 5594 5595 5596 5596 5595 5595 5595 5595 5595 5594 5593 5591 5590 5588 5587 5585 5583
5570 5570 5569 5569 5569 5568 5568 5568 5569 5569 5569 5570 5571 5571 5572 5573 5574 5575 5575 5576 5577 5579 5580 5580 5581 5582 5583 5584 5585 5585 5585 5585 5586 5586 5586 5585 5584 5583 5582 5582 5580 5579 5577
5560 5560 5560 5559 5558 5558 5557 5557 5557 5558 5559 5559 5560 5560 5561 5562 5563 5564 5564 5565 5566 5568 5569 5570 5571 5572 5573 5573 5574 5575 5575 5576 5577 5577 5577 5577 5576 5576 5576 5575 5574 5573 5571
5550 5550 5549 5549 5548 5548 5547 5547 5547 5548 5548 5549 5549 5550 5551 5552 5552 5553 5554 5555 5556 5557 5558 5559 5560 5562 5563 5564 5564 5565 5566 5567 5568 5568 5569 5569 5569 5569 5569 5568 5567 5566 5565
5540 5540 5540 5539 5538 5538 5537 5537 5537 5538 5538 5538 5539 5540 5541 5541 5542 5543 5543 5544 5545 5546 5547 5549 5550 5551 5553 5554 5555 5556 5557 5558 5559 5560 5561 5562 5562 5562 5562 5561 5561 5560 5559
5530 5530 5530 5529 5529 5528 5528 5527 5528 5528 5528 5529 5529 5530 5531 5531 5532 5532 5533 5533 5534 5535 5537 5538 5540 5541 5543 5544 5545 5547 5548 5549 5551 5552 5553 5554 5555 5555 5555 5554 5554 5554 5553
5521 5520 5520 5520 5519 5519 5518 5518 5518 5518 5519 5519 5520 5520 5521 5521 5522 5523 5523 5524 5525 5526 5527 5529 5530 5532 5533 5535 5536 5537 5539 5541 5542 5544 5545 5546 5547 5548 5548 5548 5547 5547 5547
5511 5511 5510 5510 5509 5509 5508 5508 5508 5509 5509 5510 5510 5511 5511 5512 5513 5513 5514 5515 5515 5516 5518 5519 5521 5522 5524 5526 5527 5529 5531 5533 5534 5536 5537 5538 5539 5540 5540 5541 5541 5541 5541
5502 5501 5500 5500 5499 5499 5499 5499 5499 5500 5500 5501 5501 5501 5502 5503 5503 5504 5505 5506 5506 5508 5509 5510 5512 5513 5515 5517 5519 5521 5523 5524 5526 5528 5529 5531 5532 5533 5534 5534 5534 5534 5535
5492 5491 5491 5490 5489 5489 5489 5489 5489 5490 5491 5491 5492 5492 5493 5494 5494 5495 5496 5496 5497 5498 5500 5501 5503 5505 5507 5509 5511 5513 5515 5516 5518 5520 5522 5523 5524 5526 5526 5527 5528 5528 5529
5483 5482 5481 5480 5480 5479 5479 5479 5479 5480 5481 5482 5482 5483 5484 5484 5485 5486 5486 5487 5488 5489 5491 5493 5495 5497 5499 5501 5503 5505 5507 5508 5510 5512 5514 5515 5517 5518 5519 5520 5521 5522 5523
5474 5473 5472 5471 5470 5470 5469 5469 5469 5470 5471 5472 5473 5474 5474 5475 5476 5476 5477 5478 5479 5481 5482 5484 5486 5488 5490 5493 5495 5497 5499 5501 5502 5504 5506 5508 5510 5511 5513 5514 5515 5516 5517
5465 5464 5463 5462 5461 5461 5460 5460 5460 5460 5461 5462 5463 5464 5465 5465 5466 5467 5468 5469 5470 5472 5473 5476 5478 5480 5482 5484 5487 5489 5491 5493 5495 5497 5499 5501 5503 5505 5506 5508 5509 5510 5512
5457 5456 5455 5453 5453 5452 5451 5451 5451 5451 5452 5452 5453 5454 5455 5456 5457 5458 5460 5461 5462 5464 5465 5467 5470 5472 5474 5476 5479 5481 5483 5485 5487 5489 5492 5494 5496 5498 5500 5502 5503 5505 5507
5448 5447 5446 5445 5444 5443 5443 5442 5442 5442 5442 5443 5444 5445 5446 5447 5448 5450 5451 5452 5454 5456 5457 5459 5461 5464 5466 5468 5471 5473 5475 5478 5480 5483 5485 5488 5490 5492 5494 5496 5498 5500 5502